Theta_e
311 311 310 310 310 310 310 310 310 310 311 311 312 312 312 313 314 315 316 314 313 313 312 312 313 313 314 315 315 314 317 317 318 318 318 316 317 315 315 315 315 313 313 313 314
311 311 310 310 309 309 310 310 310 311 311 312 312 312 313 315 317 318 316 313 313 312 312 312 312 313 316 316 316 316 317 316 315 316 318 317 316 316 316 316 315 313 313 313 312
311 311 311 310 309 309 309 310 310 311 311 312 312 313 315 317 318 316 312 312 311 311 311 312 313 313 316 316 317 315 316 313 314 315 316 317 316 315 316 317 315 314 311 311 311
311 311 311 310 309 309 309 310 311 311 311 312 313 315 318 319 320 315 312 311 311 311 312 313 313 315 316 316 316 317 315 314 316 315 315 316 315 315 315 313 311 311 310 310 311
310 311 311 310 309 309 309 310 311 311 311 312 315 318 319 318 319 319 316 312 311 311 312 312 313 315 316 315 315 317 316 315 315 314 314 313 315 315 312 309 309 309 309 310 311
310 311 311 310 309 309 309 310 311 311 311 314 317 319 318 318 318 317 317 317 313 311 311 313 312 313 314 315 315 314 314 314 314 314 313 314 313 312 308 307 308 308 309 310 310
311 311 310 309 308 308 309 310 311 311 312 316 318 318 318 318 318 317 317 317 317 315 313 313 312 314 314 315 312 313 315 315 314 312 313 312 314 313 307 307 307 308 309 309 309
311 311 309 308 308 308 309 311 311 311 314 317 318 317 317 318 318 317 317 316 316 315 313 312 313 314 314 312 312 315 314 319 314 312 311 313 319 310 307 307 308 306 305 305 306
308 308 308 308 308 309 310 310 310 313 317 317 317 317 318 316 316 316 316 315 314 313 312 312 313 313 313 316 317 314 320 316 316 312 313 314 317 310 306 307 307 305 303 302 303
309 308 307 308 308 309 310 310 312 316 317 317 317 317 317 315 315 315 314 314 313 313 313 313 313 315 313 317 321 320 317 315 317 314 313 315 316 309 306 307 306 304 303 302 302
315 312 309 309 310 310 311 313 316 317 317 318 318 318 315 316 314 313 313 313 313 313 315 312 316 317 318 317 316 316 315 317 314 312 314 316 316 315 307 306 306 304 302 301 303
316 316 315 315 314 314 314 316 316 317 319 317 317 317 316 315 312 311 312 312 312 314 311 312 315 317 313 313 313 313 315 316 313 311 312 315 315 314 307 307 306 304 302 301 300
320 317 317 317 317 316 316 316 317 319 319 319 317 318 317 315 314 312 312 311 311 311 312 316 315 311 311 311 312 313 315 316 316 312 311 312 316 312 305 304 302 301 301 301 301
323 320 318 317 317 316 316 315 317 320 319 319 317 318 317 317 313 313 312 312 310 313 311 313 311 310 311 312 312 315 311 312 312 314 319 310 322 314 308 306 303 301 301 300 299
323 323 320 318 316 316 316 315 317 317 323 317 315 314 313 317 313 310 310 310 313 312 312 315 311 312 314 313 311 316 311 312 312 314 314 313 316 318 307 308 305 303 302 301 299
321 323 322 319 317 316 316 317 319 319 322 317 311 312 314 311 309 308 309 310 310 311 311 314 309 312 314 309 311 308 310 309 310 313 317 317 316 318 312 310 307 303 302 300 298
321 320 321 320 318 317 318 319 320 321 317 315 314 313 316 312 309 309 310 312 316 317 318 315 312 309 308 312 308 311 314 319 319 318 319 310 313 317 311 307 306 304 302 300 298
319 320 321 320 319 317 319 319 318 320 320 310 310 312 317 311 311 309 311 314 314 315 317 320 321 311 309 316 314 311 317 322 324 319 318 309 315 315 307 305 303 304 302 300 297
313 317 318 320 319 318 319 319 320 320 319 313 310 314 316 310 313 311 313 316 315 313 320 319 319 309 308 308 312 311 313 313 313 307 317 316 313 311 305 304 303 303 301 300 298
312 313 315 317 319 317 319 317 317 317 317 315 317 316 317 313 314 313 313 313 314 312 313 315 321 309 308 309 309 310 312 315 315 321 322 314 313 316 308 307 303 301 301 300 298
312 312 311 314 318 316 318 316 317 316 315 315 318 318 316 313 314 313 316 312 313 311 313 312 314 312 308 310 314 311 312 312 315 316 320 318 313 310 310 309 305 303 302 301 299
314 313 311 314 316 317 318 316 316 316 316 317 315 317 315 311 312 313 314 315 310 311 313 314 314 316 312 308 306 312 313 313 318 314 311 312 316 306 307 307 306 304 302 301 300
313 311 312 317 319 318 317 317 316 316 317 317 317 316 315 313 314 313 313 309 309 311 314 313 315 320 315 310 307 310 311 313 313 313 317 319 318 305 304 304 304 304 302 301 300
312 313 312 314 314 317 317 318 318 317 316 316 318 316 312 316 313 318 313 308 307 311 313 313 316 319 323 319 314 312 312 311 313 318 317 315 314 308 307 306 304 303 302 301 301
312 312 312 313 312 311 317 317 318 318 315 316 316 317 318 319 317 316 317 308 307 308 310 312 316 316 317 309 312 314 313 312 313 314 317 317 313 310 309 307 306 305 303 302 301
312 310 308 310 312 314 313 317 317 317 314 316 317 317 316 318 318 319 316 313 314 307 309 308 316 315 315 308 307 310 312 312 312 313 314 313 312 310 308 306 305 304 302 302 302
306 308 309 311 311 312 313 313 315 315 313 314 314 316 315 315 315 308 308 310 310 310 309 310 313 312 317 311 306 310 310 311 311 312 313 313 313 306 304 305 305 304 303 304 302
Wind_Speed
3 2 3 3 3 3 3 3 4 4 4 5 5 7 7 8 8 8 8 4 4 6 6 4 3 1 2 3 3 2 2 4 6 6 5 2 4 1 1 1 2 2 2 4 8
5 5 5 5 6 6 6 5 5 5 5 6 7 8 8 9 9 8 5 5 5 6 6 6 5 3 2 2 1 1 2 3 3 4 6 3 1 0 3 0 3 3 2 6 8
9 8 8 8 8 8 8 8 8 7 7 7 8 8 8 8 9 2 2 3 5 7 8 6 3 0 2 1 1 1 1 3 3 5 3 3 2 1 2 2 2 2 2 1 2
12 11 11 11 10 10 10 10 9 9 9 9 9 8 8 6 4 2 3 5 6 8 7 4 1 1 2 2 1 2 1 2 2 5 4 3 2 2 2 1 3 3 5 4 4
15 14 14 13 12 12 12 11 11 11 11 10 10 9 8 4 7 7 5 6 7 8 6 4 3 3 3 3 3 3 2 3 3 5 5 5 5 1 2 3 4 6 4 2 2
18 17 16 16 14 14 13 12 12 12 12 11 11 10 9 6 8 8 9 9 9 9 8 6 3 5 4 3 3 2 2 5 5 4 5 5 2 6 4 6 5 4 1 1 2
21 20 19 18 16 16 15 14 14 13 13 12 12 11 12 14 10 8 9 10 10 10 9 8 6 5 6 4 1 0 4 6 5 3 4 7 4 6 5 6 3 2 2 3 3
23 22 21 20 18 17 16 15 15 14 13 13 12 10 8 12 13 15 15 11 11 11 10 9 8 6 3 7 2 2 3 4 3 3 2 6 4 8 1 8 3 1 0 1 1
23 23 22 21 19 18 17 16 15 14 14 13 11 8 7 12 14 16 13 11 11 10 10 10 10 4 6 4 3 2 6 6 2 2 2 6 1 7 1 6 3 2 2 2 2
24 23 23 22 21 19 17 16 15 14 14 12 13 5 14 8 9 13 15 13 10 12 10 7 3 4 3 8 9 7 6 5 6 3 3 6 9 7 1 3 3 4 4 4 5
23 25 24 23 22 21 17 12 10 9 18 14 7 6 4 13 11 12 15 16 11 9 8 5 8 13 19 17 5 2 4 7 3 2 4 11 13 8 5 5 6 6 7 7 9
23 22 22 22 21 20 18 11 10 4 9 17 25 20 10 14 10 15 19 13 10 8 8 4 14 15 2 9 9 7 9 13 4 3 4 9 14 8 7 5 6 8 9 9 11
25 23 20 18 17 19 21 19 13 7 7 9 23 27 23 23 15 22 26 13 7 10 17 13 2 11 9 8 11 12 14 11 9 3 4 5 14 11 5 6 9 9 11 11 13
27 24 23 19 17 21 22 17 11 2 6 7 8 10 20 19 9 19 29 12 6 14 9 9 5 7 10 12 12 15 13 9 7 5 9 3 6 5 8 10 12 14 14 15 16
22 28 28 29 20 21 20 15 16 6 8 5 5 6 13 14 14 10 25 13 10 9 8 6 10 11 11 8 13 6 6 10 7 11 5 8 6 3 6 12 13 19 19 18 17
27 25 32 32 31 23 12 19 20 4 13 4 4 6 8 6 3 6 12 7 6 6 2 5 1 5 5 3 8 14 9 5 3 3 8 15 13 8 7 10 17 23 23 23 22
33 30 28 40 39 28 23 31 4 7 3 8 5 8 8 6 4 6 13 13 11 9 15 6 8 4 4 5 2 6 10 4 5 6 7 3 9 12 6 8 17 29 31 27 25
28 29 29 31 42 35 36 12 8 20 26 6 6 7 11 10 5 7 10 12 18 7 4 11 8 15 14 18 10 16 18 7 7 6 3 2 8 5 2 7 4 25 29 28 28
28 31 30 33 47 43 35 14 16 13 17 13 7 6 9 6 6 9 12 10 14 17 13 10 7 3 6 4 12 10 11 4 5 1 2 6 5 6 6 6 9 21 28 30 29
30 24 28 26 41 47 18 17 11 14 9 16 21 16 16 13 13 15 14 9 8 19 9 5 4 1 4 4 0 6 12 5 5 5 6 4 5 8 10 14 10 17 27 30 31
24 9 21 22 37 34 13 10 15 12 16 14 19 13 11 12 17 12 12 5 14 13 22 4 3 4 4 12 17 6 7 5 3 4 4 3 5 5 10 17 19 25 31 34 33
25 6 14 17 17 6 14 15 19 13 19 13 4 17 13 14 14 17 17 14 23 18 16 11 2 7 14 0 2 11 8 15 7 6 4 2 5 4 4 11 21 23 28 30 33
17 20 15 26 11 10 6 17 18 14 16 11 13 10 12 12 8 15 13 8 19 18 18 13 5 3 3 5 4 9 11 13 6 2 11 7 4 4 3 7 16 19 24 29 33
13 5 17 24 21 7 15 15 20 19 13 23 12 13 5 15 11 8 12 7 17 19 19 26 10 15 18 6 12 12 17 15 13 9 12 17 8 8 10 11 14 18 22 27 35
18 7 9 4 16 19 15 12 20 18 17 23 9 22 21 13 15 22 18 4 5 9 7 14 14 21 25 7 7 8 20 22 23 29 17 17 17 17 17 16 22 24 23 26 30
11 6 7 6 13 10 17 8 17 16 10 10 18 17 16 17 21 15 18 12 13 8 10 6 12 20 21 10 9 8 17 27 29 25 22 11 14 13 22 14 15 21 24 27 32
9 18 12 9 10 10 13 17 14 18 9 15 12 13 13 22 23 7 2 7 4 11 16 13 15 8 21 13 4 7 27 21 21 18 22 19 15 9 7 14 21 20 24 30 30
Wind_Direction
212 230 245 256 266 262 268 275 288 297 309 313 316 318 321 318 315 311 300 257 229 211 205 200 198 172 102 83 76 104 202 186 180 177 150 151 182 141 308 221 64 71 127 257 285
245 251 263 274 275 276 274 276 278 289 297 304 311 314 318 319 316 303 275 245 215 193 191 179 164 137 87 90 43 243 241 177 153 154 152 155 222 107 223 175 154 127 333 292 280
256 261 265 266 274 276 276 279 282 287 289 295 300 307 313 321 319 275 196 171 164 160 155 152 154 47 104 103 64 168 264 155 166 167 163 168 260 186 257 174 71 340 320 165 150
252 260 264 267 268 272 277 280 284 288 290 294 298 302 307 315 291 225 190 175 163 162 168 167 185 123 140 188 139 208 186 193 148 174 169 203 157 204 244 97 238 257 150 113 109
254 258 263 266 266 267 272 277 281 284 289 292 295 299 305 286 257 246 230 216 208 205 205 225 232 162 189 164 169 219 190 213 225 195 237 238 235 194 114 201 163 148 148 114 52
254 256 259 260 262 265 266 271 276 281 283 287 289 293 293 255 259 248 240 231 222 218 223 232 236 187 126 170 231 136 249 262 267 248 222 220 163 174 139 150 153 155 158 359 343
255 256 256 257 258 259 264 269 273 277 279 282 286 287 278 264 259 244 236 230 228 227 227 220 203 179 151 145 149 79 286 285 235 221 220 178 172 159 145 171 166 181 224 244 258
254 254 254 254 255 256 260 266 270 272 274 278 281 285 261 258 246 242 237 229 221 218 213 201 185 172 122 131 82 248 243 255 125 162 158 194 203 158 198 211 211 206 272 309 318
249 250 251 253 253 254 258 264 265 267 270 274 274 261 259 247 234 232 225 219 207 196 186 180 173 138 136 187 226 208 257 222 255 189 169 223 164 161 43 188 178 154 116 85 45
248 247 249 252 254 255 256 259 263 267 264 266 250 258 234 223 215 214 209 199 183 176 151 164 140 181 166 194 236 207 217 227 234 168 215 226 248 165 106 174 167 148 126 108 109
246 244 244 248 251 252 251 253 266 263 232 214 225 194 176 200 195 196 192 178 166 167 187 161 205 215 215 214 233 177 210 238 173 145 229 243 254 199 191 173 172 166 150 135 130
249 242 241 243 245 246 238 213 216 233 290 249 240 226 214 192 175 191 183 175 176 194 136 160 229 228 192 193 197 216 237 243 267 193 233 253 256 238 198 205 199 176 159 150 132
243 242 237 238 237 234 235 228 232 250 265 253 235 231 222 216 211 198 186 191 190 177 195 213 184 190 167 170 200 225 225 233 255 159 231 272 265 221 189 180 170 176 162 153 143
235 236 234 228 233 233 232 218 205 171 269 226 215 229 206 203 225 207 193 178 186 210 182 238 172 154 189 211 200 235 216 223 212 220 257 218 280 207 181 184 190 182 176 167 157
242 234 228 225 219 213 227 202 185 137 273 109 144 184 172 183 141 181 180 196 187 170 179 200 176 189 204 206 187 255 156 201 204 225 259 199 257 193 173 207 195 188 181 175 166
240 241 232 220 220 225 194 160 155 165 240 183 131 159 151 178 131 113 170 169 160 143 262 264 161 196 214 96 185 134 108 78 94 191 248 227 217 203 198 215 183 188 185 179 174
244 234 245 225 211 209 173 152 159 199 146 179 175 175 179 163 160 169 176 183 182 190 223 211 218 173 170 131 111 185 160 194 221 208 245 154 207 250 197 183 191 183 184 181 178
244 235 241 249 224 201 178 167 202 221 213 112 129 139 187 157 193 172 165 194 215 199 145 203 231 188 193 214 187 196 190 191 213 205 183 134 225 233 96 136 160 187 179 177 180
241 243 252 242 221 202 177 198 211 211 191 163 135 174 197 199 185 176 206 217 199 197 199 191 239 187 192 152 172 186 214 176 107 1 233 203 235 237 155 169 168 176 179 183 183
233 244 242 253 221 194 202 204 229 211 156 188 207 194 189 186 181 193 186 192 204 195 198 194 253 213 162 137 110 210 152 182 227 211 234 214 248 222 201 197 183 182 188 187 188
226 225 249 245 227 192 208 221 232 225 202 187 207 213 205 183 201 199 208 181 204 199 192 132 210 144 143 208 189 162 190 206 203 203 225 243 233 212 193 186 186 194 194 190 190
207 217 231 222 199 209 203 201 218 211 223 240 226 218 199 184 199 210 214 219 190 154 180 187 174 200 203 154 269 233 220 193 204 189 239 284 247 162 190 188 189 189 192 193 194
203 216 223 209 227 209 209 214 221 197 202 206 224 221 204 197 221 214 215 190 175 170 170 170 191 193 237 222 191 214 204 215 226 62 203 192 208 169 185 214 198 184 186 190 195
204 204 214 209 236 252 203 209 216 219 218 210 224 211 168 222 220 230 221 191 201 204 192 165 178 206 225 234 160 209 205 204 196 225 209 230 207 199 192 198 193 187 190 191 196
203 226 206 206 225 246 250 196 210 213 214 203 211 222 215 229 227 233 232 164 203 217 205 184 222 219 237 238 203 210 199 196 208 222 210 231 219 195 189 195 197 195 189 188 197
194 195 172 199 224 221 234 217 195 208 169 204 225 216 219 225 217 233 226 210 213 177 188 200 226 224 236 218 217 218 212 207 213 219 234 230 226 189 195 184 184 193 187 195 202
234 226 215 214 215 222 236 232 212 201 209 209 206 227 217 231 242 248 185 209 201 190 195 186 205 194 228 208 218 266 224 205 210 214 217 219 230 150 180 191 198 191 196 204 204